Flag for Germany Weather past 2 weeks in Eckernförde, Schleswig-Holstein, Germany

Now
71 °F

Passing clouds.


Feels Like: 74 °F
Forecast: 64 / 83 °F
Wind: 7 mph from East

Location: Schleswig

Current Time: Jul 2, 2015 at 9:16:42 PM

Latest Report: Jul 2, 2015 at 9:00 PM


Visibility: 13 mi

Pressure: 30.18 "Hg

Humidity: 68%

Dew point: 60 °F

Location of EckernfördeLocation

Historic Weather in Eckernförde — Graph

°F

Eckernförde temperature yesterday

Maximum temperature yesterday: 74 °F (at 3:00 PM)
Minimum temperature yesterday: 53 °F (at 3:00 AM)
Average temperature yesterday: 65 °F

Past Weeks' High & Low Weather Summary

 TemperatureHumidityPressure
High82 °F (Jul 2, 2:00 PM)99% (Jun 17, 9:00 PM)30.26 "Hg (Jun 17, 9:00 PM)
Low48 °F (Jun 20, 6:00 AM)43% (Jul 2, 1:00 PM)29.65 "Hg (Jun 22, 9:00 PM)
Average59 °F79%30.01 "Hg
* Reported Jun 17 8:00 PM — Jul 2 8:00 PM, Eckernförde, Weather by CustomWeather, © 2015

Note: Actual official high and low records may vary slightly from our data, if they occured in-between our weather recording intervals... More about our weather records

Advertising

Eckernförde weather history for previous 24 hours

 ConditionsComfort  
Time TempWeatherWind HumidityBarometerVisibility
8:00 PM
Thu, Jul 2
73 °FSunny.7 mph64%30.18 "Hg16 mi
7:00 PM75 °FSunny.8 mph59%30.19 "Hg16 mi
6:00 PM77 °FSunny.7 mph54%30.19 "Hg16 mi
5:00 PM79 °FSunny.8 mph50%30.19 "Hg16 mi
4:00 PM80 °FSunny.7 mph48%30.19 "Hg16 mi
3:00 PM80 °FSunny.7 mph48%30.20 "Hg16 mi
2:00 PM82 °FSunny.6 mph43%30.20 "Hg16 mi
1:00 PM81 °FSunny.7 mph43%30.20 "Hg12 mi
12:00 PM79 °FSunny.7 mph45%30.22 "Hg12 mi
11:00 AM78 °FSunny.6 mph51%30.22 "Hg12 mi
10:00 AM74 °FSunny.5 mph55%30.22 "Hg12 mi
9:00 AM71 °FSunny.6 mph61%30.22 "Hg12 mi
8:00 AM68 °FSunny.5 mph71%30.23 "Hg12 mi
7:00 AM64 °FPassing clouds.3 mph82%30.23 "Hg19 mi
6:00 AM62 °FPassing clouds.3 mph85%30.22 "Hg19 mi
4:00 AM62 °FClear.3 mph85%30.23 "Hg19 mi
3:00 AM62 °FClear.3 mph85%30.23 "Hg19 mi
2:00 AM63 °FClear.3 mph85%30.23 "Hg19 mi
1:00 AM64 °FClear.5 mph85%30.22 "Hg19 mi
12:00 AM64 °FClear.5 mph85%30.22 "Hg19 mi
11:00 PM
Wed, Jul 1
64 °FClear.6 mph82%30.22 "Hg19 mi
10:00 PM66 °FClear.6 mph77%30.20 "Hg19 mi
9:00 PM68 °FSunny.6 mph71%30.20 "Hg19 mi
Weather by CustomWeather, © 2015

See weather overviewHow to use our weather pages